User: anonymous   Login
Location: Wawayanda State Park
(41.1833°N, 74.4333°W)
Time: 21:34:18
(UTC-04:00)
Language:

RESURS DK-1 - Orbit

View from above orbital plane
View from above orbital plane
View from above satellite
View from above satellite

Ground track
Ground track

The orbit data is extracted from the following two-line orbital elements,

1 29228U 06021A   15241.82803363  .00000870  00000-0  74475-4 0  9994
2 29228 069.9408 329.9027 0007941 269.9919 090.0335 15.01582000509409
Epoch (UTC): 29 August 2015 19:52:22
Eccentricity: 0.0007941
inclination: 69.9408°
perigee height: 556 km
apogee height: 567 km
right ascension of ascending node: 329.9027°
argument of perigee: 269.9919°
revolutions per day: 15.01582000
mean anomaly at epoch: 90.0335°
orbit number at epoch: 50940

The dashed part of the orbit path shows where the satellite is in the earth's shadow,  

DLR